Location: Bamazo
(6.7448°N, 10.8189°W)
Time: 16:35:00
(UTC+00:00)

Delta 198 - Pass Details

Date: 18 September 2020
Orbit: 458 x 1019 km, 24.8° (Epoch: 25 October)

Event Time Altitude Azimuth Distance (km) Brightness Sun altitude
Rises 18:59:37 0° 299° (WNW) 3,605 8.8 -5.4°
Reaches altitude 10° 19:02:27 10° 302° (WNW) 2,592 7.8 -6.1°
Maximum altitude 19:08:40 66° 24° (NNE) 888 4.3 -7.6°
Enters shadow 19:13:54 10° 106° (ESE) 2,200 5.7 -8.9°
